timestamp,surface_pressure_avg,surface_temp_avg,battery_voltage,lat,long
2023-08-09 00:09:00+00:00,215.6698,15.0,12.41,47.84626,-54.09684
2023-08-09 00:19:00+00:00,217.5798,14.9,12.41,47.84626,-54.09684
2023-08-09 00:29:00+00:00,216.6364,14.52,12.41,47.84626,-54.09684
2023-08-09 00:39:00+00:00,217.6747,14.1,12.41,47.84626,-54.09684
2023-08-09 00:49:00+00:00,219.1348,14.0,12.41,47.84626,-54.09684
2023-08-09 00:59:00+00:00,217.7847,13.92,12.41,47.84626,-54.09684
2023-08-09 01:09:00+00:00,218.3431,13.9,12.41,47.84626,-54.09684
2023-08-09 01:19:00+00:00,219.3731,13.89,12.41,47.84626,-54.09684
2023-08-09 01:29:00+00:00,221.0914,13.9,12.41,47.84626,-54.09684
2023-08-09 01:39:00+00:00,223.9464,13.99,12.41,47.84626,-54.09684
2023-08-09 01:49:00+00:00,226.0515,14.11,12.41,47.84626,-54.09684
2023-08-09 01:59:00+00:00,227.0581,14.32,12.41,47.84626,-54.09684
2023-08-09 02:09:00+00:00,233.3898,14.4,12.41,47.84626,-54.09684
2023-08-09 02:19:00+00:00,242.0164,14.3,12.41,47.84626,-54.09684
2023-08-09 02:29:00+00:00,247.2397,14.3,12.41,47.84626,-54.09684
2023-08-09 02:39:00+00:00,249.1997,14.3,12.41,47.84626,-54.09684
2023-08-09 02:49:00+00:00,253.5981,14.2,12.41,47.84626,-54.09684
2023-08-09 02:59:00+00:00,257.6647,14.2,12.41,47.84626,-54.09684
2023-08-09 03:09:00+00:00,261.2731,14.35,12.41,47.84626,-54.09684
2023-08-09 03:19:00+00:00,267.6098,14.67,12.41,47.84626,-54.09684
2023-08-09 03:29:00+00:00,275.6531,14.6,12.41,47.84626,-54.09684
2023-08-09 03:39:00+00:00,279.8648,14.6,12.41,47.84626,-54.09684
2023-08-09 03:49:00+00:00,284.6797,14.67,12.41,47.84626,-54.09684
2023-08-09 03:59:00+00:00,291.7864,14.6,12.41,47.84626,-54.09684
2023-08-09 04:09:00+00:00,299.003,14.7,12.41,47.84626,-54.09684
2023-08-09 04:19:00+00:00,301.0114,14.6,12.41,47.84626,-54.09684
2023-08-09 04:29:00+00:00,305.1831,13.83,12.41,47.84626,-54.09684
2023-08-09 04:39:00+00:00,307.9914,14.15,12.41,47.84626,-54.09684
2023-08-09 04:49:00+00:00,311.4113,14.65,12.41,47.84626,-54.09684
2023-08-09 04:59:00+00:00,309.0114,15.16,12.41,47.84626,-54.09684
2023-08-09 05:09:00+00:00,307.5579,15.33,12.41,47.84626,-54.09684
2023-08-09 05:19:00+00:00,308.1379,15.2,12.41,47.84626,-54.09684
2023-08-09 05:29:00+00:00,310.6647,15.19,12.41,47.84626,-54.09684
2023-08-09 05:39:00+00:00,310.0214,15.2,12.41,47.84626,-54.09684
2023-08-09 05:49:00+00:00,311.9164,15.0,12.41,47.84626,-54.09684
2023-08-09 05:59:00+00:00,314.1379,15.06,12.41,47.84626,-54.09684
2023-08-09 06:09:00+00:00,311.5997,15.34,12.41,47.84626,-54.09684
2023-08-09 06:19:00+00:00,307.8796,15.56,12.41,47.84626,-54.09684
2023-08-09 06:29:00+00:00,308.178,15.7,12.41,47.84626,-54.09684
2023-08-09 06:39:00+00:00,309.298,15.75,12.41,47.84626,-54.09684
2023-08-09 06:49:00+00:00,305.8796,15.8,12.41,47.84626,-54.09684
2023-08-09 06:59:00+00:00,302.9014,15.83,12.41,47.84626,-54.09684
2023-08-09 07:09:00+00:00,300.3697,15.9,12.41,47.84626,-54.09684
2023-08-09 07:19:00+00:00,297.3397,15.99,12.41,47.84626,-54.09684
2023-08-09 07:29:00+00:00,293.3763,16.03,12.41,47.84626,-54.09684
2023-08-09 07:39:00+00:00,288.9114,16.1,12.41,47.84626,-54.09684
2023-08-09 07:49:00+00:00,283.7098,16.09,12.41,47.84626,-54.09684
2023-08-09 07:59:00+00:00,278.4581,16.1,12.41,47.84626,-54.09684
2023-08-09 08:09:00+00:00,270.2364,16.14,12.41,47.84626,-54.09684
2023-08-09 08:19:00+00:00,259.6914,16.2,12.41,47.84626,-54.09684
2023-08-09 08:29:00+00:00,252.5464,16.29,12.41,47.84626,-54.09684
2023-08-09 08:39:00+00:00,248.6465,16.3,12.41,47.84626,-54.09684
2023-08-09 08:49:00+00:00,242.9998,16.34,12.41,47.84626,-54.09684
2023-08-09 08:59:00+00:00,237.4797,16.4,12.41,47.84626,-54.09684
2023-08-09 09:09:00+00:00,232.0314,16.4,12.41,47.84626,-54.09684
2023-08-09 09:19:00+00:00,225.8148,16.48,12.41,47.84626,-54.09684
2023-08-09 09:29:00+00:00,220.9864,16.5,12.41,47.84626,-54.09684
2023-08-09 09:39:00+00:00,217.8331,16.57,12.41,47.84626,-54.09684
2023-08-09 09:49:00+00:00,214.5131,16.6,12.41,47.84626,-54.09684
2023-08-09 09:59:00+00:00,208.1064,16.6,12.41,47.84626,-54.09684
2023-08-09 10:09:00+00:00,204.3598,16.69,12.41,47.84626,-54.09684
2023-08-09 10:19:00+00:00,204.0665,16.7,12.41,47.84626,-54.09684
2023-08-09 10:29:00+00:00,203.6781,16.77,12.41,47.84626,-54.09684
2023-08-09 10:39:00+00:00,204.0215,16.8,12.41,47.84626,-54.09684
2023-08-09 10:49:00+00:00,204.3615,16.87,12.41,47.84626,-54.09684
2023-08-09 10:59:00+00:00,206.7231,16.9,12.41,47.84626,-54.09684
2023-08-09 11:09:00+00:00,207.9865,16.99,12.41,47.84626,-54.09684
2023-08-09 11:19:01+00:00,205.4365,17.0,12.41,47.84626,-54.09684
2023-08-09 11:29:01+00:00,205.6031,17.08,12.41,47.84626,-54.09684
2023-08-09 11:39:01+00:00,209.0015,17.1,12.41,47.84626,-54.09684
2023-08-09 11:49:01+00:00,214.3231,17.1,12.41,47.84626,-54.09684
2023-08-09 11:59:01+00:00,217.0514,17.18,12.41,47.84626,-54.09684
2023-08-09 12:09:01+00:00,222.7098,17.2,12.41,47.84626,-54.09684
2023-08-09 12:19:00+00:00,228.1864,17.2,12.41,47.84626,-54.09684
2023-08-09 12:29:00+00:00,227.7681,17.25,12.41,47.84626,-54.09684
2023-08-09 12:39:00+00:00,229.2664,17.29,12.41,47.84626,-54.09684
2023-08-09 12:49:00+00:00,235.5214,17.3,12.41,47.84626,-54.09684
2023-08-09 12:59:00+00:00,239.9114,17.2,12.41,47.84626,-54.09684
2023-08-09 13:09:00+00:00,235.8814,17.23,12.41,47.84626,-54.09684
2023-08-09 13:19:01+00:00,230.7814,17.3,12.41,47.84626,-54.09684
2023-08-09 13:29:01+00:00,232.4198,17.37,12.41,47.84626,-54.09684
2023-08-09 13:39:01+00:00,234.8948,17.38,12.41,47.84626,-54.09684
2023-08-09 13:49:01+00:00,233.2348,17.4,12.41,47.84626,-54.09684
2023-08-09 13:59:01+00:00,233.9481,17.4,12.41,47.84626,-54.09684
2023-08-09 14:09:01+00:00,238.1247,17.38,12.41,47.84626,-54.09684
2023-08-09 14:19:00+00:00,242.3098,17.3,12.49,47.84626,-54.09684
2023-08-09 14:29:00+00:00,245.1214,17.34,12.49,47.84626,-54.09684
2023-08-09 14:39:00+00:00,252.5197,17.32,12.49,47.84626,-54.09684
2023-08-09 14:49:00+00:00,259.3431,17.3,12.49,47.84626,-54.09684
2023-08-09 14:59:00+00:00,262.7631,17.31,12.49,47.84626,-54.09684
2023-08-09 15:09:00+00:00,268.39799999999997,17.36,12.49,47.84626,-54.09684
2023-08-09 15:19:00+00:00,278.1414,17.36,12.41,47.84626,-54.09684
2023-08-09 15:29:00+00:00,282.0097,17.37,12.41,47.84626,-54.09684
2023-08-09 15:39:00+00:00,283.9564,17.38,12.41,47.84626,-54.09684
2023-08-09 15:49:00+00:00,289.2414,17.38,12.41,47.84626,-54.09684
2023-08-09 15:59:00+00:00,298.6479,16.59,12.41,47.84626,-54.09684
2023-08-09 16:09:00+00:00,304.5997,17.17,12.41,47.84626,-54.09684
2023-08-09 16:19:00+00:00,308.058,17.3,12.41,47.84626,-54.09684
2023-08-09 16:29:00+00:00,314.2613,16.6,12.41,47.84626,-54.09684
2023-08-09 16:39:00+00:00,324.073,17.02,12.41,47.84626,-54.09684
2023-08-09 16:49:00+00:00,327.2247,17.29,12.41,47.84626,-54.09684
2023-08-09 16:59:00+00:00,323.1747,17.38,12.41,47.84626,-54.09684
2023-08-09 17:09:00+00:00,319.1663,17.4,12.41,47.84626,-54.09684
2023-08-09 17:19:00+00:00,321.083,17.4,12.57,47.84626,-54.09684
2023-08-09 17:29:00+00:00,321.4597,17.4,12.57,47.84626,-54.09684
2023-08-09 17:39:00+00:00,325.5096,17.4,12.57,47.84626,-54.09684
2023-08-09 17:49:00+00:00,332.3812,17.4,12.57,47.84626,-54.09684
2023-08-09 17:59:00+00:00,338.0713,17.4,12.57,47.84626,-54.09684
2023-08-09 18:09:00+00:00,335.6413,17.4,12.57,47.84626,-54.09684
2023-08-09 18:19:00+00:00,331.2346,17.42,12.49,47.84626,-54.09684
2023-08-09 18:29:00+00:00,334.8714,17.4,12.49,47.84626,-54.09684
2023-08-09 18:39:00+00:00,333.478,17.4,12.49,47.84626,-54.09684
2023-08-09 18:49:00+00:00,325.7429,17.4,12.49,47.84626,-54.09684
2023-08-09 18:59:00+00:00,324.6064,17.29,12.49,47.84626,-54.09684
2023-08-09 19:09:00+00:00,325.3763,16.8,12.49,47.84626,-54.09684
2023-08-09 19:19:00+00:00,323.443,16.96,12.41,47.84626,-54.09684
2023-08-09 19:29:00+00:00,318.7663,17.26,12.41,47.84626,-54.09684
2023-08-09 19:39:00+00:00,320.5496,17.36,12.41,47.84626,-54.09684
2023-08-09 19:49:00+00:00,319.9781,17.23,12.41,47.84626,-54.09684
2023-08-09 19:59:00+00:00,318.7247,17.15,12.41,47.84626,-54.09684
2023-08-09 20:09:00+00:00,312.9747,17.3,12.41,47.84626,-54.09684
2023-08-09 20:19:00+00:00,309.0263,17.4,12.41,47.84626,-54.09684
2023-08-09 20:29:00+00:00,300.3214,17.4,12.41,47.84626,-54.09684
2023-08-09 20:39:00+00:00,296.5147,17.4,12.41,47.84626,-54.09684
2023-08-09 20:49:00+00:00,294.063,17.4,12.41,47.84626,-54.09684
2023-08-09 20:59:00+00:00,291.0297,17.4,12.41,47.84626,-54.09684
2023-08-09 21:09:00+00:00,282.1664,17.4,12.41,47.84626,-54.09684
2023-08-09 21:19:01+00:00,278.5831,17.37,12.41,47.84626,-54.09684
2023-08-09 21:29:01+00:00,276.1714,17.4,12.41,47.84626,-54.09684
2023-08-09 21:39:01+00:00,270.7398,17.4,12.41,47.84626,-54.09684
2023-08-09 21:49:01+00:00,259.9347,17.4,12.41,47.84626,-54.09684
2023-08-09 21:59:01+00:00,256.6313,17.42,12.41,47.84626,-54.09684
2023-08-09 22:09:01+00:00,250.7397,17.46,12.41,47.84626,-54.09684
2023-08-09 22:19:01+00:00,244.7347,17.48,12.41,47.84626,-54.09684
2023-08-09 22:29:01+00:00,239.0381,17.48,12.41,47.84626,-54.09684
2023-08-09 22:39:01+00:00,240.4781,17.49,12.41,47.84626,-54.09684
2023-08-09 22:49:01+00:00,242.4098,17.48,12.41,47.84626,-54.09684
2023-08-09 22:59:01+00:00,242.3231,17.47,12.41,47.84626,-54.09684
2023-08-09 23:09:01+00:00,233.2847,17.48,12.41,47.84626,-54.09684
2023-08-09 23:19:00+00:00,225.6681,17.48,12.41,47.84626,-54.09684
2023-08-09 23:29:00+00:00,224.5281,17.46,12.41,47.84626,-54.09684
2023-08-09 23:39:00+00:00,225.0081,17.4,12.41,47.84626,-54.09684
2023-08-09 23:49:00+00:00,221.7231,17.4,12.41,47.84626,-54.09684
2023-08-09 23:59:00+00:00,223.5847,17.41,12.41,47.84626,-54.09684
